[[{"header":{"parameterUnit":"m.s-1","parameterCategory":1,"la1":30.2991,"la2":30.254,"lo1":-89.0895,"lo2":-89.0444,"dy":0.0017,"dx":0.0017,"nx":28,"ny":28,"refTime":"2025-03-04T09:00:00:Z","depth":0,"parameterNumber":2,"parameterNumberName":"U-component_of_WINDS"},"data":[0,0,0,0,0,0,0,0,0,0,0,0,0,0,0,0,0,0,0,0,0,0,0,0,0,0,0,0,0,0,0,0,0,0,0,0,0,0,0,0,0,0,0,0,0,0,0,0,0,0,0,0,0,0,0,0,0,0,3.9396,3.9398,0,3.9542,3.9544,3.9545,3.9511,3.9509,3.9506,3.9503,3.9654,3.9661,3.9667,0,0,0,0,0,0,0,0,0,0,0,0,0,3.909,3.9096,3.9396,3.9398,3.94,3.9542,3.9544,3.9546,3.9512,3.9508,3.9505,3.9502,3.9652,3.966,3.9668,0,0,0,0,0,0,0,0,0,0,0,0,0,3.9229,3.9098,3.9396,3.94,3.9402,3.9541,3.9544,3.9546,3.9513,3.9508,3.9504,3.95,3.965,3.9659,3.9669,3.9815,0,0,3.97,3.9704,0,0,0,0,0,0,0,0,3.9221,3.924,3.9397,3.94,3.9402,3.9504,3.9492,3.9636,3.9514,3.9471,3.9503,3.9498,3.9608,3.9621,3.9658,3.9822,3.9828,3.97,3.9707,3.9711,3.9714,0,0,0,0,0,0,0,3.9211,3.9233,3.9454,3.94,3.9403,3.9395,3.941,3.9519,3.9561,3.9474,3.9472,3.9489,3.9608,3.9648,3.9661,3.983,3.97,3.9709,3.9715,3.9719,4.0123,4.0128,0,0,0,0,0,0,3.9199,3.9226,3.9449,3.9458,3.9299,3.9404,3.9421,3.9476,3.956,3.9568,3.9493,3.9487,3.9633,3.9649,3.9666,3.9843,3.9711,3.972,3.9726,4.0118,4.0124,4.0129,0,0,0,0,0,0,3.9193,3.922,3.9443,3.9341,3.9369,3.9414,3.9476,3.9481,3.952,3.9574,3.9582,3.9526,3.9631,3.9652,3.9778,3.9848,3.9725,3.9734,4.0113,4.012,4.0127,4.0198,0,0,0,0,0,0,3.9184,3.9217,3.9272,3.9343,3.9375,3.9552,3.948,3.9487,3.9538,3.9532,3.9607,3.9615,3.9629,3.9764,3.9788,3.986,3.9741,4.0107,4.0116,4.0124,4.0189,4.0206,4.0221,0,0,0,0,0,3.9173,3.9287,3.9275,3.9303,3.9444,3.9556,3.9575,3.9588,3.9543,3.9599,3.9634,3.9613,3.9836,3.9777,3.9804,3.988,4.0102,4.0113,4.0124,4.0182,4.0203,4.0221,0,0,0,0,0,0,3.9223,3.9296,3.9284,3.9423,3.9484,3.955,3.9621,3.9609,3.9684,3.9675,3.9689,3.9706,3.9835,3.987,3.9802,4.0026,3.9963,3.998,3.9998,4.0019,4.0034,4.0023,3.975,0,0,0,0,0,3.925,3.9335,3.9394,3.9511,3.9542,3.9577,3.9626,3.9631,3.9694,3.972,3.9764,3.9827,3.9911,3.9967,4.0047,4.0194,4.0211,4.026,4.0276,4.0288,4.0303,4.0385,4.0408,4.0165,4.0164,4.0164,0,0,3.9307,3.9358,3.941,3.9522,3.957,3.9657,3.9598,3.9693,3.9759,3.9734,3.9856,3.9891,3.9962,4.01,4.0163,4.0133,4.0374,4.0302,4.0312,4.0319,4.0398,4.0421,4.0441,4.0172,4.017,4.0169,0,0,3.9456,3.9502,3.9605,3.9654,3.9727,3.975,3.9775,3.9844,3.9866,3.9988,3.9972,4.0051,4.0196,4.0248,4.0293,4.0464,4.0448,4.049,4.0573,4.0653,4.0672,4.0689,4.0751,4.0773,4.0504,4.0504,4.0504,0,3.9518,3.9649,3.966,3.9757,3.9808,3.979,3.9895,3.9942,4.0038,4.0074,4.0039,4.0222,4.0269,4.0419,4.0461,4.0498,4.0528,4.0481,4.0668,4.0685,4.0701,4.0761,4.0784,4.0509,4.0508,4.0508,4.0508,0,3.9722,3.9813,3.9888,3.9981,4.004,4.0141,4.0169,4.0227,4.0227,4.0254,4.038,4.0436,4.0528,4.0564,4.0565,4.0716,4.0695,4.0664,4.0601,4.0729,4.0785,4.0808,4.0516,4.0514,4.0513,4.0512,0,0,3.9906,4.0004,4.0032,4.0074,4.0154,4.0225,4.0326,4.0416,4.0467,4.0534,4.062,4.0744,4.0716,4.0768,4.0775,4.0845,4.0978,4.0805,4.0807,4.0836,4.1149,4.1172,4.1198,4.0968,4.0972,4.0976,4.1143,0,4.0063,4.0239,4.0253,4.0413,4.0498,4.0483,4.0571,4.063,4.0658,4.0736,4.0767,4.0855,4.0811,4.0843,4.0911,4.0947,4.1041,4.0935,4.1049,4.1053,4.1032,4.1227,4.1251,4.1407,4.1165,4.1169,4.1171,0,4.0269,4.0342,4.051,4.0579,4.0616,4.0694,4.0779,4.0853,4.092,4.0936,4.0995,4.0992,4.1098,4.1031,4.1177,4.1105,4.1152,4.1177,4.1184,4.1195,4.112,4.1245,4.1456,4.148,4.1206,4.1203,4.12,0,4.0387,4.0528,4.0647,4.0684,4.0767,4.0823,4.0861,4.0924,4.0978,4.1052,4.1087,4.1173,4.122,4.1287,4.1309,4.1258,4.1455,4.139,4.1472,4.1472,4.1514,4.1511,4.1737,4.1544,4.1543,4.1543,4.1542,0,4.0561,4.0665,4.0702,4.0775,4.0892,4.0907,4.1022,4.1057,4.1114,4.1194,4.1187,4.1263,4.1286,4.1367,4.1385,4.1504,4.1525,4.1542,4.1545,4.1543,4.1541,4.1574,4.1564,4.1549,4.1548,4.1547,4.1545,0,4.0713,4.0741,4.0871,4.0939,4.0959,4.1042,4.1101,4.1173,4.12,4.1302,4.1327,4.1371,4.1466,4.1494,4.1608,4.162,4.176,4.1753,4.1737,4.1737,4.1818,4.1811,4.2074,4.211,4.1892,4.1894,4.1896,0,4.0822,4.0902,4.0979,4.1032,4.1072,4.1158,4.1213,4.1232,4.129,4.1374,4.1436,4.1529,4.1605,4.1758,4.18,4.1888,4.1884,4.1971,4.1897,4.1893,4.1887,4.1882,4.189,4.1984,4.1987,4.1988,4.199,0,4.1013,4.1024,4.1103,4.1188,4.1254,4.1322,4.1387,4.1432,4.146,4.1526,4.1623,4.1682,4.1799,4.1893,4.1982,4.2022,4.2012,4.2013,4.2037,4.2035,4.2023,4.2031,4.1775,4.2007,4.2005,4.2004,4.2003,4.2002,4.1148,4.1219,4.1284,4.1373,4.1425,4.1486,4.1557,4.1593,4.1674,4.1771,4.1777,4.1883,4.195,4.2069,4.2113,4.2197,4.2172,4.2206,4.2215,4.2223,4.223,4.2009,4.2213,4.2213,4.2212,4.2212,4.2212,0,4.134,4.1381,4.1463,4.1555,4.1626,4.1609,4.1681,4.1742,4.1834,4.1897,4.1972,4.2085,4.2176,4.2226,4.2317,4.2375,4.2372,4.2398,4.2394,4.2404,4.2247,4.2218,4.2398,4.2398,4.2398,4.2398,4.2398,4.2398,4.1448,4.1567,4.1585,4.173,4.1771,4.1874,4.1917,4.1974,4.2025,4.215,4.2226,4.2258,4.2316,4.2412,4.2496,4.2508,4.2543,4.2571,4.2581,4.2434,4.2415,4.2396,4.2369,4.2579,4.2579,4.2731,4.2733,4.2734]},{"header":{"parameterUnit":"m.s-1","parameterCategory":1,"la1":30.2991,"la2":30.254,"lo1":-89.0895,"lo2":-89.0444,"dy":0.0017,"dx":0.0017,"nx":28,"ny":28,"refTime":"2025-03-04T09:00:00:Z","depth":0,"parameterNumber":3,"parameterNumberName":"V-component_of_WINDS"},"data":[0,0,0,0,0,0,0,0,0,0,0,0,0,0,0,0,0,0,0,0,0,0,0,0,0,0,0,0,0,0,0,0,0,0,0,0,0,0,0,0,0,0,0,0,0,0,0,0,0,0,0,0,0,0,0,0,0,0,-5.006,-5.0062,0,-5.0273,-5.0276,-5.0278,-5.0249,-5.0245,-5.0242,-5.0238,-5.046,-5.0469,-5.0478,0,0,0,0,0,0,0,0,0,0,0,0,0,-4.963,-4.9638,-5.0059,-5.0062,-5.0065,-5.0273,-5.0276,-5.0279,-5.0249,-5.0245,-5.0241,-5.0237,-5.0457,-5.0468,-5.0479,0,0,0,0,0,0,0,0,0,0,0,0,0,-4.9827,-4.964,-5.0059,-5.0075,-5.0079,-5.0272,-5.0276,-5.0279,-5.025,-5.0245,-5.0239,-5.0234,-5.0453,-5.0467,-5.0481,-5.0673,0,0,-5.0523,-5.0529,0,0,0,0,0,0,0,0,-4.9816,-4.9843,-5.007,-5.0074,-5.0079,-5.0229,-5.0206,-5.0411,-5.0251,-5.0185,-5.0238,-5.0232,-5.0388,-5.0406,-5.0458,-5.0683,-5.0692,-5.0524,-5.0532,-5.0538,-5.0542,0,0,0,0,0,0,0,-4.9802,-4.9834,-5.0144,-5.0073,-5.0079,-5.0073,-5.0095,-5.0244,-5.0314,-5.0191,-5.0189,-5.0214,-5.0389,-5.0445,-5.0463,-5.0696,-5.0524,-5.0536,-5.0544,-5.055,-5.1091,-5.1097,0,0,0,0,0,0,-4.9784,-4.9822,-5.0137,-5.015,-4.9931,-5.0085,-5.011,-5.0186,-5.0312,-5.0326,-5.0219,-5.0212,-5.0424,-5.0447,-5.0471,-5.0706,-5.0538,-5.0551,-5.0559,-5.1085,-5.1092,-5.1099,0,0,0,0,0,0,-4.9775,-4.9812,-5.0129,-4.9986,-5.0026,-5.0098,-5.0184,-5.0193,-5.0249,-5.0333,-5.0346,-5.0263,-5.0421,-5.0452,-5.0623,-5.0713,-5.0557,-5.057,-5.1078,-5.1087,-5.1095,-5.1176,0,0,0,0,0,0,-4.9763,-4.9809,-4.9882,-4.9988,-5.0034,-5.0276,-5.0189,-5.0201,-5.0273,-5.0266,-5.0378,-5.0392,-5.0419,-5.0603,-5.0637,-5.0729,-5.0581,-5.107,-5.1082,-5.1093,-5.1166,-5.1187,-5.1205,0,0,0,0,0,-4.9747,-4.9896,-4.9886,-4.9924,-5.0126,-5.0281,-5.0308,-5.0335,-5.028,-5.0355,-5.0409,-5.0388,-5.0697,-5.062,-5.0659,-5.0757,-5.1064,-5.1078,-5.1092,-5.1157,-5.1183,-5.1205,0,0,0,0,0,0,-4.98,-4.9911,-4.99,-5.0088,-5.0175,-5.0276,-5.0371,-5.0361,-5.0467,-5.0457,-5.0487,-5.0512,-5.0686,-5.0738,-5.065,-5.095,-5.0874,-5.0896,-5.091,-5.0935,-5.0955,-5.0939,-5.0592,0,0,0,0,0,-4.9833,-4.9949,-5.004,-5.0197,-5.0241,-5.0299,-5.0367,-5.0381,-5.0473,-5.051,-5.0577,-5.0668,-5.0786,-5.0863,-5.0976,-5.1173,-5.1198,-5.1259,-5.1279,-5.1294,-5.1314,-5.1424,-5.1453,-5.1144,-5.1144,-5.1143,0,0,-4.9904,-4.9978,-5.005,-5.0209,-5.0279,-5.0399,-5.033,-5.046,-5.0551,-5.053,-5.0697,-5.0749,-5.0853,-5.1038,-5.1123,-5.1087,-5.1405,-5.1312,-5.1324,-5.1335,-5.1441,-5.147,-5.1496,-5.1153,-5.1151,-5.115,0,0,-5.0094,-5.0161,-5.03,-5.0371,-5.0477,-5.0514,-5.0548,-5.0651,-5.0684,-5.0851,-5.0839,-5.0947,-5.1149,-5.1225,-5.1289,-5.1509,-5.1495,-5.1545,-5.1648,-5.1755,-5.1779,-5.1801,-5.1881,-5.191,-5.1563,-5.1564,-5.1564,0,-5.0169,-5.0349,-5.0373,-5.0506,-5.0577,-5.0563,-5.0705,-5.0773,-5.0911,-5.0961,-5.0918,-5.1172,-5.1241,-5.1445,-5.1499,-5.1551,-5.1591,-5.1533,-5.1773,-5.1795,-5.1816,-5.1893,-5.1923,-5.1569,-5.1568,-5.1568,-5.1567,0,-5.0437,-5.0562,-5.0661,-5.0794,-5.0877,-5.1013,-5.1059,-5.114,-5.1147,-5.1189,-5.136,-5.1442,-5.1573,-5.1621,-5.1629,-5.1827,-5.1802,-5.1766,-5.169,-5.1851,-5.1924,-5.1954,-5.1577,-5.1575,-5.1573,-5.1572,0,0,-5.0667,-5.0811,-5.0848,-5.0909,-5.1025,-5.1123,-5.1259,-5.1386,-5.1455,-5.1551,-5.1668,-5.1839,-5.1807,-5.188,-5.1896,-5.199,-5.2161,-5.1943,-5.1946,-5.1982,-5.2387,-5.2415,-5.2449,-5.2152,-5.2157,-5.2162,-5.2379,0,-5.087,-5.111,-5.1137,-5.1352,-5.1469,-5.1458,-5.1577,-5.1662,-5.1705,-5.1812,-5.186,-5.1982,-5.1929,-5.1974,-5.2065,-5.2121,-5.2243,-5.2105,-5.2263,-5.2268,-5.2239,-5.2487,-5.2516,-5.2717,-5.2408,-5.2413,-5.2416,0,-5.114,-5.1242,-5.1469,-5.157,-5.162,-5.1727,-5.1846,-5.1947,-5.2044,-5.2069,-5.2151,-5.2155,-5.2298,-5.2215,-5.2413,-5.2318,-5.2384,-5.2421,-5.243,-5.2447,-5.2353,-5.2513,-5.2782,-5.2813,-5.2461,-5.2457,-5.2454,0,-5.1288,-5.1483,-5.1644,-5.1696,-5.1817,-5.1893,-5.1947,-5.2038,-5.2113,-5.2217,-5.2266,-5.2386,-5.2452,-5.2545,-5.2582,-5.2518,-5.278,-5.2699,-5.2806,-5.2806,-5.2864,-5.286,-5.3149,-5.2902,-5.2902,-5.2901,-5.2901,0,-5.1513,-5.1653,-5.1712,-5.1812,-5.1969,-5.1998,-5.2152,-5.2203,-5.2285,-5.2395,-5.2392,-5.2496,-5.2538,-5.2649,-5.2679,-5.284,-5.2869,-5.2895,-5.2902,-5.2897,-5.2894,-5.2942,-5.293,-5.2909,-5.2908,-5.2906,-5.2905,0,-5.1706,-5.1751,-5.1926,-5.2026,-5.2055,-5.2166,-5.2253,-5.235,-5.2391,-5.2532,-5.2566,-5.2632,-5.2763,-5.2809,-5.2967,-5.2987,-5.3175,-5.3169,-5.3143,-5.3145,-5.325,-5.3241,-5.3583,-5.363,-5.335,-5.3352,-5.3355,0,-5.1848,-5.1955,-5.2066,-5.214,-5.2197,-5.2315,-5.2391,-5.2424,-5.2504,-5.2622,-5.2706,-5.2835,-5.2941,-5.3151,-5.3214,-5.3336,-5.3334,-5.3446,-5.3353,-5.3345,-5.3339,-5.3333,-5.3345,-5.3464,-5.3467,-5.3469,-5.3471,0,-5.2096,-5.2113,-5.2222,-5.2341,-5.2431,-5.2526,-5.2618,-5.2678,-5.2725,-5.2816,-5.2949,-5.3031,-5.3193,-5.3323,-5.3448,-5.3505,-5.3498,-5.3499,-5.3531,-5.3528,-5.351,-5.3524,-5.3192,-5.3492,-5.349,-5.3488,-5.3487,-5.3486,-5.2269,-5.2365,-5.2458,-5.2581,-5.2653,-5.2739,-5.2836,-5.2889,-5.3001,-5.3135,-5.3147,-5.3292,-5.3387,-5.3554,-5.3617,-5.3732,-5.3701,-5.3746,-5.3759,-5.377,-5.3779,-5.3489,-5.3754,-5.3754,-5.3753,-5.3753,-5.3752,0,-5.2519,-5.2578,-5.2691,-5.2819,-5.2916,-5.2898,-5.2999,-5.3082,-5.3209,-5.3298,-5.3402,-5.3556,-5.3682,-5.3755,-5.3881,-5.3959,-5.3959,-5.3992,-5.3987,-5.4001,-5.3798,-5.3759,-5.399,-5.399,-5.399,-5.399,-5.399,-5.3989,-5.266,-5.2822,-5.285,-5.3048,-5.3106,-5.3247,-5.3307,-5.3387,-5.3458,-5.363,-5.3734,-5.378,-5.3864,-5.3997,-5.4112,-5.413,-5.4178,-5.4215,-5.423,-5.404,-5.4015,-5.3992,-5.3956,-5.4224,-5.4224,-5.4424,-5.4426,-5.4428]}]]